BAW17W EGLL-KATL

Flight info

Callsign BAW17W
Flight time N/A
Altitude 32000
Route CPT L9 BIBPE DCT BUCGO DCT FELCA DCT NICXI DCT BAKUR DCT NEBIN/M082F320 NATD IBERG/N0478F320 N368A EBONY DCT KAYCC DCT KYLOH DCT BAF Q448 PTW J48 MOL DCT FLASK OZZZI2
Aircraft B77W/H-SDE1E2E3FGHIJ2J3J4J5M1RWXY/LB1D1

Departure

Time 2026-05-07 14:04
Airport London Heathrow Airport (EGLL)

Arrival

Time N/A
Airport Hartsfield Jackson Atlanta International Airport (KATL)
Time Latitude Longitude Altitude Speed Heading
2026-05-07 13:40 51.47123 -0.47727 91 ft 0 kts 89°
2026-05-07 13:54 51.47123 -0.47730 95 ft 3 kts 89°
2026-05-07 13:54 51.47123 -0.47760 91 ft 3 kts 89°
2026-05-07 13:54 51.47123 -0.47790 91 ft 3 kts 89°
2026-05-07 13:54 51.47123 -0.47821 91 ft 3 kts 89°
2026-05-07 13:55 51.47123 -0.47852 91 ft 3 kts 107°
2026-05-07 13:55 51.47132 -0.47879 91 ft 3 kts 144°
2026-05-07 13:55 51.47141 -0.47889 91 ft 0 kts 165°
2026-05-07 13:57 51.47133 -0.47885 92 ft 5 kts 165°
2026-05-07 13:57 51.47072 -0.47873 91 ft 10 kts 178°
2026-05-07 13:57 51.47005 -0.47870 94 ft 10 kts 179°
2026-05-07 13:58 51.46938 -0.47869 91 ft 10 kts 180°
2026-05-07 13:58 51.46871 -0.47868 91 ft 10 kts 180°
2026-05-07 13:58 51.46803 -0.47870 93 ft 10 kts 181°
2026-05-07 13:58 51.46751 -0.47917 91 ft 10 kts 256°
2026-05-07 13:59 51.46743 -0.48052 91 ft 18 kts 269°
2026-05-07 13:59 51.46743 -0.48336 91 ft 30 kts 270°
2026-05-07 13:59 51.46738 -0.48637 92 ft 21 kts 268°
2026-05-07 13:59 51.46691 -0.48742 91 ft 10 kts 185°
2026-05-07 14:00 51.46654 -0.48747 92 ft 0 kts 188°
2026-05-07 14:00 51.46641 -0.48750 91 ft 4 kts 191°
2026-05-07 14:01 51.46614 -0.48762 91 ft 4 kts 195°
2026-05-07 14:01 51.46608 -0.48765 91 ft 0 kts 195°
2026-05-07 14:02 51.46597 -0.48769 93 ft 7 kts 195°
2026-05-07 14:02 51.46549 -0.48784 92 ft 7 kts 180°
2026-05-07 14:02 51.46499 -0.48750 93 ft 9 kts 135°
2026-05-07 14:02 51.46478 -0.48658 95 ft 9 kts 98°
2026-05-07 14:03 51.46477 -0.48577 96 ft 0 kts 90°
2026-05-07 14:03 51.46477 -0.48576 94 ft 2 kts 90°
2026-05-07 14:03 51.46477 -0.48379 96 ft 43 kts 90°
2026-05-07 14:04 51.46481 -0.47450 93 ft 121 kts 90°
2026-05-07 14:04 51.46492 -0.45746 124 ft 181 kts 89°
2026-05-07 14:04 51.46500 -0.43668 714 ft 190 kts 88°
2026-05-07 14:04 51.46454 -0.41498 1246 ft 201 kts 103°
2026-05-07 14:05 51.45766 -0.39545 1808 ft 204 kts 135°
2026-05-07 14:05 51.44560 -0.38355 2133 ft 214 kts 165°
2026-05-07 14:05 51.43039 -0.38390 2241 ft 226 kts 200°
2026-05-07 14:05 51.41681 -0.39762 2353 ft 239 kts 229°
2026-05-07 14:06 51.40908 -0.42142 2520 ft 252 kts 260°
2026-05-07 14:06 51.40921 -0.44985 2917 ft 259 kts 277°
2026-05-07 14:06 51.41213 -0.47843 3456 ft 265 kts 279°
2026-05-07 14:06 51.41551 -0.50768 4135 ft 265 kts 279°
2026-05-07 14:07 51.41889 -0.53692 4566 ft 277 kts 279°
2026-05-07 14:07 51.42255 -0.56869 4773 ft 301 kts 279°
2026-05-07 14:07 51.42645 -0.60296 4978 ft 325 kts 279°
2026-05-07 14:07 51.43050 -0.63931 5394 ft 340 kts 278°
2026-05-07 14:08 51.43464 -0.67726 6006 ft 348 kts 278°
2026-05-07 14:08 51.43884 -0.71598 6767 ft 351 kts 278°
2026-05-07 14:08 51.44297 -0.75424 7597 ft 351 kts 278°
2026-05-07 14:08 51.44717 -0.79334 8366 ft 355 kts 278°
2026-05-07 14:09 51.45135 -0.83208 9131 ft 357 kts 278°
2026-05-07 14:09 51.45558 -0.87154 9845 ft 360 kts 278°
2026-05-07 14:09 51.45983 -0.91157 10475 ft 366 kts 278°
2026-05-07 14:09 51.46411 -0.95169 11087 ft 372 kts 278°
2026-05-07 14:10 51.46855 -0.99354 11787 ft 375 kts 278°
2026-05-07 14:10 51.47291 -1.03521 12485 ft 380 kts 278°
2026-05-07 14:10 51.47732 -1.07750 13227 ft 383 kts 278°
2026-05-07 14:10 51.48172 -1.11985 13968 ft 385 kts 278°
2026-05-07 14:11 51.48610 -1.16254 14699 ft 388 kts 278°
2026-05-07 14:11 51.49157 -1.20525 15346 ft 393 kts 285°
2026-05-07 14:11 51.50116 -1.24623 15968 ft 399 kts 294°
2026-05-07 14:11 51.51464 -1.28549 16631 ft 402 kts 300°
2026-05-07 14:12 51.52892 -1.32392 17270 ft 405 kts 298°
2026-05-07 14:12 51.54321 -1.36339 17912 ft 408 kts 298°
2026-05-07 14:12 51.55753 -1.40336 18544 ft 411 kts 298°
2026-05-07 14:12 51.57170 -1.44313 19117 ft 415 kts 298°
2026-05-07 14:13 51.58633 -1.48424 19662 ft 419 kts 298°
2026-05-07 14:13 51.60074 -1.52482 20198 ft 423 kts 298°
2026-05-07 14:13 51.61546 -1.56629 20733 ft 427 kts 298°
2026-05-07 14:13 51.63021 -1.60807 21256 ft 430 kts 298°
2026-05-07 14:14 51.64494 -1.64987 21762 ft 434 kts 298°
2026-05-07 14:14 51.65996 -1.69244 22256 ft 437 kts 298°
2026-05-07 14:14 51.67509 -1.73529 22729 ft 440 kts 298°
2026-05-07 14:14 51.69015 -1.77820 23193 ft 444 kts 298°
2026-05-07 14:15 51.70432 -1.82291 23636 ft 446 kts 291°
2026-05-07 14:15 51.71454 -1.86979 24091 ft 448 kts 284°
2026-05-07 14:15 51.72152 -1.91887 24526 ft 449 kts 277°
2026-05-07 14:15 51.72530 -1.96921 24922 ft 451 kts 275°
2026-05-07 14:16 51.72857 -2.01993 25367 ft 453 kts 274°
2026-05-07 14:16 51.73177 -2.07009 25791 ft 456 kts 274°
2026-05-07 14:16 51.73512 -2.12129 26157 ft 459 kts 275°
2026-05-07 14:16 51.73858 -2.17295 26503 ft 463 kts 275°
2026-05-07 14:17 51.74208 -2.22431 26850 ft 466 kts 275°
2026-05-07 14:17 51.74565 -2.27663 27199 ft 469 kts 275°
2026-05-07 14:17 51.74922 -2.32878 27530 ft 472 kts 275°
2026-05-07 14:17 51.75283 -2.38173 27873 ft 474 kts 275°
2026-05-07 14:18 51.75638 -2.43459 28191 ft 477 kts 275°
2026-05-07 14:18 51.75996 -2.48825 28501 ft 480 kts 275°
2026-05-07 14:18 51.76351 -2.54158 28811 ft 481 kts 275°
2026-05-07 14:18 51.76708 -2.59575 29098 ft 484 kts 275°
2026-05-07 14:19 51.77057 -2.64949 29365 ft 485 kts 275°
2026-05-07 14:19 51.77411 -2.70401 29651 ft 488 kts 275°
2026-05-07 14:19 51.77760 -2.75824 29984 ft 488 kts 275°
2026-05-07 14:19 51.78111 -2.81322 30361 ft 486 kts 275°
2026-05-07 14:20 51.78452 -2.86715 30754 ft 484 kts 275°
2026-05-07 14:20 51.78795 -2.92148 31140 ft 482 kts 275°
2026-05-07 14:20 51.79131 -2.97532 31493 ft 481 kts 274°
2026-05-07 14:20 51.79459 -3.02829 31828 ft 479 kts 274°
2026-05-07 14:21 51.79790 -3.08223 31981 ft 482 kts 274°
2026-05-07 14:21 51.80445 -3.18996 32045 ft 482 kts 274°
2026-05-07 14:22 51.81087 -3.29700 32046 ft 478 kts 274°
2026-05-07 14:22 51.81717 -3.40386 32048 ft 477 kts 274°
2026-05-07 14:23 51.82237 -3.49321 32037 ft 477 kts 274°
2026-05-07 14:23 51.83195 -3.59900 32043 ft 478 kts 281°
2026-05-07 14:24 51.84837 -3.72183 32039 ft 480 kts 281°
2026-05-07 14:24 51.86007 -3.81013 32033 ft 482 kts 281°
2026-05-07 14:25 51.87380 -3.91643 32029 ft 483 kts 280°
2026-05-07 14:25 51.88735 -4.02322 32029 ft 484 kts 280°
2026-05-07 14:26 51.90077 -4.12983 32027 ft 485 kts 280°
2026-05-07 14:26 51.91418 -4.23709 32033 ft 484 kts 280°
2026-05-07 14:27 51.92743 -4.34374 32025 ft 483 kts 280°
2026-05-07 14:27 51.94053 -4.45038 32022 ft 483 kts 280°
2026-05-07 14:28 51.95368 -4.55791 32012 ft 481 kts 279°
2026-05-07 14:28 51.96655 -4.66415 32016 ft 479 kts 279°
2026-05-07 14:29 51.97932 -4.77048 32018 ft 478 kts 279°
2026-05-07 14:29 51.99192 -4.87629 32023 ft 477 kts 279°
2026-05-07 14:30 52.00445 -4.98203 32017 ft 477 kts 279°
2026-05-07 14:30 52.01857 -5.08760 32013 ft 480 kts 285°
2026-05-07 14:31 52.03903 -5.19091 32011 ft 481 kts 286°
2026-05-07 14:31 52.05966 -5.29371 32009 ft 482 kts 286°
2026-05-07 14:32 52.08021 -5.39797 32011 ft 482 kts 285°
2026-05-07 14:32 52.10043 -5.50228 31999 ft 483 kts 285°
2026-05-07 14:33 52.12038 -5.60602 31999 ft 482 kts 285°
2026-05-07 14:33 52.14029 -5.70993 31997 ft 480 kts 285°
2026-05-07 14:34 52.16000 -5.81342 32002 ft 480 kts 285°
2026-05-07 14:34 52.17977 -5.91781 31999 ft 479 kts 285°
2026-05-07 14:35 52.19929 -6.02135 32000 ft 479 kts 285°
2026-05-07 14:35 52.21872 -6.12502 31991 ft 479 kts 285°
2026-05-07 14:36 52.23812 -6.22916 31995 ft 480 kts 285°
2026-05-07 14:36 52.25742 -6.33330 31992 ft 480 kts 284°
2026-05-07 14:37 52.27671 -6.43803 31982 ft 481 kts 284°
2026-05-07 14:37 52.30540 -6.59472 31997 ft 480 kts 284°
2026-05-07 14:38 52.32436 -6.69917 31993 ft 480 kts 284°
2026-05-07 14:38 52.34335 -6.80452 31991 ft 480 kts 284°
2026-05-07 14:39 52.36213 -6.90908 31990 ft 479 kts 284°
2026-05-07 14:39 52.38083 -7.01362 31987 ft 478 kts 284°
2026-05-07 14:40 52.39940 -7.11849 31992 ft 478 kts 283°
2026-05-07 14:40 52.41783 -7.22290 31989 ft 477 kts 283°
2026-05-07 14:41 52.43607 -7.32661 31991 ft 477 kts 283°
2026-05-07 14:41 52.45437 -7.43166 31993 ft 477 kts 283°
2026-05-07 14:42 52.47249 -7.53616 31975 ft 476 kts 283°
2026-05-07 14:42 52.49048 -7.64057 31986 ft 476 kts 283°
2026-05-07 14:43 52.50834 -7.74488 31985 ft 475 kts 283°
2026-05-07 14:43 52.52611 -7.84914 31976 ft 474 kts 283°
2026-05-07 14:44 52.54380 -7.95357 31973 ft 474 kts 283°
2026-05-07 14:44 52.56146 -8.05861 31975 ft 474 kts 283°
2026-05-07 14:45 52.57887 -8.16264 31975 ft 474 kts 283°
2026-05-07 14:45 52.59627 -8.26721 31972 ft 474 kts 283°
2026-05-07 14:46 52.61364 -8.37228 31970 ft 474 kts 283°
2026-05-07 14:46 52.63077 -8.47668 31974 ft 473 kts 282°
2026-05-07 14:47 52.64787 -8.58141 31966 ft 473 kts 282°
2026-05-07 14:47 52.66482 -8.68593 31966 ft 473 kts 282°
2026-05-07 14:48 52.68170 -8.79055 31962 ft 473 kts 282°
2026-05-07 14:48 52.69853 -8.89557 31966 ft 473 kts 282°
2026-05-07 14:49 52.71521 -9.00031 31963 ft 473 kts 282°
2026-05-07 14:49 52.73190 -9.10586 31963 ft 473 kts 282°
2026-05-07 14:50 52.74840 -9.21077 31969 ft 473 kts 282°
2026-05-07 14:50 52.76487 -9.31629 31962 ft 473 kts 282°
2026-05-07 14:51 52.78130 -9.42207 31964 ft 473 kts 282°
2026-05-07 14:51 52.79751 -9.52711 31962 ft 472 kts 282°
2026-05-07 14:52 52.81372 -9.63289 31956 ft 472 kts 282°
2026-05-07 14:52 52.82979 -9.73857 31952 ft 471 kts 282°
2026-05-07 14:53 52.84564 -9.84342 31952 ft 471 kts 281°
2026-05-07 14:53 52.86140 -9.94845 31955 ft 470 kts 281°
2026-05-07 14:54 52.87709 -10.05340 31955 ft 470 kts 281°
2026-05-07 14:54 52.89272 -10.15903 31952 ft 469 kts 281°
2026-05-07 14:55 52.90814 -10.26383 31954 ft 468 kts 281°
2026-05-07 14:55 52.92095 -10.35143 31953 ft 468 kts 281°
2026-05-07 14:56 52.93626 -10.45668 31955 ft 467 kts 281°
2026-05-07 14:56 52.95141 -10.56141 31953 ft 467 kts 281°
2026-05-07 14:57 52.96643 -10.66611 31955 ft 467 kts 281°
2026-05-07 14:57 52.98133 -10.77094 31951 ft 467 kts 281°
2026-05-07 14:58 52.99620 -10.87601 31945 ft 467 kts 281°
2026-05-07 14:58 53.01097 -10.98087 31946 ft 466 kts 280°
2026-05-07 14:59 53.02555 -11.08548 31947 ft 466 kts 280°
2026-05-07 14:59 53.04005 -11.19009 31937 ft 465 kts 280°
2026-05-07 15:00 53.05453 -11.29509 31932 ft 464 kts 280°
2026-05-07 15:00 53.06881 -11.39978 31936 ft 464 kts 280°
2026-05-07 15:01 53.08308 -11.50483 31942 ft 463 kts 279°
2026-05-07 15:01 53.09708 -11.60916 31951 ft 463 kts 279°
2026-05-07 15:02 53.11114 -11.71413 31938 ft 463 kts 279°
2026-05-07 15:02 53.12496 -11.81800 31947 ft 463 kts 279°
2026-05-07 15:03 53.13882 -11.92327 31944 ft 463 kts 279°
2026-05-07 15:03 53.15251 -12.02782 31931 ft 462 kts 279°
2026-05-07 15:04 53.16604 -12.13209 31948 ft 461 kts 279°
2026-05-07 15:04 53.17950 -12.23639 31927 ft 459 kts 278°
2026-05-07 15:05 53.19280 -12.34035 31944 ft 458 kts 278°
2026-05-07 15:05 53.20602 -12.44442 31946 ft 457 kts 278°
2026-05-07 15:06 53.21906 -12.54796 31955 ft 456 kts 278°
2026-05-07 15:06 53.23199 -12.65119 31940 ft 454 kts 278°
2026-05-07 15:07 53.24485 -12.75455 31948 ft 452 kts 278°
2026-05-07 15:07 53.25746 -12.85682 31931 ft 450 kts 278°
2026-05-07 15:08 53.26996 -12.95897 31946 ft 449 kts 277°
2026-05-07 15:08 53.28239 -13.06161 31948 ft 448 kts 277°
2026-05-07 15:09 53.29469 -13.16371 31944 ft 449 kts 277°
2026-05-07 15:09 53.30692 -13.26579 31945 ft 449 kts 277°
2026-05-07 15:10 53.31910 -13.36851 31945 ft 449 kts 277°
2026-05-07 15:10 53.33121 -13.47145 31945 ft 449 kts 277°
2026-05-07 15:11 53.34318 -13.57384 31947 ft 449 kts 277°
2026-05-07 15:11 53.35508 -13.67629 31945 ft 448 kts 277°
2026-05-07 15:12 53.36682 -13.77867 31933 ft 448 kts 277°
2026-05-07 15:12 53.37849 -13.88105 31947 ft 448 kts 277°
2026-05-07 15:13 53.39008 -13.98354 31946 ft 448 kts 276°
2026-05-07 15:13 53.40160 -14.08615 31948 ft 447 kts 276°
2026-05-07 15:14 53.41303 -14.18884 31946 ft 447 kts 276°
2026-05-07 15:14 53.42433 -14.29118 31943 ft 446 kts 276°
2026-05-07 15:15 53.43546 -14.39292 31945 ft 446 kts 276°
2026-05-07 15:15 53.44660 -14.49572 31947 ft 445 kts 276°
2026-05-07 15:16 53.45755 -14.59762 31946 ft 445 kts 276°
2026-05-07 15:16 53.46859 -14.70079 31947 ft 446 kts 276°
2026-05-07 15:17 53.47942 -14.80299 31945 ft 447 kts 276°
2026-05-07 15:17 53.49023 -14.90602 31946 ft 447 kts 276°